Погода в Полне

Россия / Псковская область     58°27′07″N   28°09′37″E
темп.,
°C
ветер,
м/с
пор.,
м/с
влажн.,
%
обл.,
%
осадки,
мм/ч
давл.,
гПа
погр.,
м
16 мая, вс
вс1600:00+11сз229796 0.4 100542
03:00+11зсз239798 0.6 100580
06:00+11зсз259897 0.1 1006168
09:00+13з359090 0.1 1008393
12:00+13з3482100 0.0 1010426
15:00+19зсз23528 0.0 10101402
18:00+19зсз124522 0.0 10101335
21:00+14в22695 0.0 101023
17 мая, пн
пн1700:00+11вюв269110 0.0 1010113
03:00+11вюв3109411 0.0 1010221
06:00+12юв3118716 0.0 1010279
09:00+18юв4963100 0.0 1010662
12:00+21юв5956100 0.1 10091595
15:00+22ююв5849100 0.1 10082208
18:00+17ю51182100 2.1 1009665
21:00+14с1193100 2.8 100820
18 мая, вт
вт1800:00+14в3995100 0.4 1007271
03:00+14св31097100 1.1 1004323
06:00+15в4129897 0.0 1002450
09:00+16вюв41194100 2.1 1000701
12:00+18юв51191100 0.9 999959
15:00+20ююв613805 3.3 9991307
18:00+20ююв611710 0.4 9991255
21:00+15ю51186100 0.7 1001764
19 мая, ср
ср1900:00+13юз4990100 0.0 1003548
03:00+12зюз3692100 0.0 1004514
06:00+11зсз3692100 0.0 1005375
09:00+13сз2382100 0.0 1005659
12:00+15сз2275100 0.0 1005864
15:00+14с2481100 0.1 1006632
18:00+13с2586100 0.1 1005341
21:00+12с258899 0.1 1005268
20 мая, чт
чт2000:00+10с249296 0.0 1005175
03:00+9ссв2498100 0.0 1004116
06:00+10с1395100 0.0 1003122
09:00+12с2496100 1.2 1001296
12:00+11ссз1398100 4.2 1000205
15:00+11з2398100 4.5 1000231
18:00+11з61297100 0.5 1001869
21:00+10з41097100 1.4 1003765